Regional Weather Roundup
Issued by NWS

Home | Current Version | Previous Version | Text Only | Print | Product List | Glossary Off
Versions: 1 2 3 4 5 6 7 8 9 10 11 12 13 14 15 16 17 18 19 20 21 22 23 24 25 26 27 28 29 30 31 32 33 34 35 36 37 38 39 40 41 42 43 44 45 46 47 48 49 50

000
ASUS43 KDTX 270210
RWRMI
MICHIGAN HOURLY REGIONAL WEATHER ROUNDUP
NATIONAL WEATHER SERVICE DETROIT/PONTIAC MI
1000 PM EDT SUN APR 26 2015

NOTE: "FAIR" INDICATES FEW OR NO CLOUDS BELOW 12,000 FEET WITH NO
SIGNIFICANT WEATHER AND/OR OBSTRUCTION TO VISIBILITY.

MIZ047>049-052>055-059>063-066>070-074>076-081>083-270300-
SOUTHEAST LOWER MICHIGAN

CITY           SKY/WX    TMP DP  RH WIND       PRES   REMARKS
ADRIAN         CLOUDY    49  33  54 CALM      29.91R
ALMA           CLEAR     44  33  64 NE7       29.95R
ANN ARBOR      CLOUDY    49  30  48 NE3       29.91R
BAD AXE        CLOUDY    45  32  61 N7        29.93S
CARO           CLEAR     38  33  82 CALM      29.94R
DETROIT CITY   CLEAR     44  30  57 NE8       29.93R
DETROIT        PTCLDY    47  32  56 NE5       29.92R
FLINT          CLEAR     48  31  51 NE12      29.94R
GROSSE ILE     CLEAR     45  34  65 NE8       29.91R
HILLSDALE      CLOUDY    47  29  49 CALM      29.90R
HOWELL         CLEAR     48  28  45 N3        29.91R

CITY           SKY/WX    TMP DP  RH WIND       PRES   REMARKS
JACKSON        CLOUDY    51  30  44 NE5       29.91R
LAMBERTVILLE   CLOUDY    50  34  53 CALM      29.92R
LANSING        PTCLDY    49  30  48 NE10      29.93R
LAPEER         FAIR      42  32  67 NE3       29.93S
MASON          MOCLDY    47  31  53 NE5       29.92R
MONROE         PTCLDY    45  34  65 CALM      29.90R
PONTIAC        PTCLDY    45  31  58 NE10      29.91R
PORT HOPE        N/A     43  35  73 N7        29.92S
PORT HURON     CLEAR     39  32  75 N3        29.92F
TRI CITIES     CLEAR     43  34  70 N5        29.95S
MIDLAND        MOCLDY    41  34  76 CALM      29.95R
TROY           CLEAR     47  30  53 NE8       29.94R
SAGINAW HB     CLEAR     41  30  65 NE3       29.94S
$$
MIZ043>046-050>051-056>058-064>065-071>073-077>080-270300-
SOUTHWEST LOWER MICHIGAN

CITY           SKY/WX    TMP DP  RH WIND       PRES   REMARKS
BATTLE CREEK   CLOUDY    53  29  39 N10       29.92R
BENTON HARBOR  PTCLDY    41  30  65 VRB5      29.97S
BIG RAPIDS     CLEAR     45  30  56 N13G18    29.97S
COLDWATER      CLOUDY    51  29  42 W8        29.92R
FREMONT        FAIR      44  28  54 N7        29.98R
HOLLAND        CLEAR     47  28  47 NW5       29.97R
GRAND RAPIDS   CLEAR     49  28  44 N10       29.95R
IONIA          FAIR      48  28  46 N7        29.93R
KALAMAZOO      PTCLDY    48  28  46 NW9       29.94R
LUDINGTON      CLEAR     43  32  65 N6        30.03R
MARSHALL       CLOUDY    51  30  44 CALM      29.91R
MOUNT PLEASANT CLEAR     47  31  53 NW7       29.96R
MUSKEGON       PTCLDY    48  28  46 N15       29.99R
SOUTH HAVEN    PTCLDY    44  31  58 N8        29.97R
$$
MIZ016>042-270300-
NORTHERN LOWER MICHIGAN

CITY           SKY/WX    TMP DP  RH WIND       PRES   REMARKS
BEAVER ISLAND  CLOUDY    41  32  70 NW6       30.04S
BELLAIRE       CLOUDY    44  31  61 N3        30.03R
CADILLAC       CLEAR     40  30  67 N8        29.99R WCI  35
CHARLEVOIX     CLOUDY    40  33  75 N6        30.05S
FRANKFORT      PTCLDY    44  29  57 N7        30.05R
GAYLORD        CLOUDY    43  30  60 VRB5      29.98S
GRAYLING       CLOUDY    43  31  60 CALM      29.99S
HARBOR SPRINGS CLOUDY    44  31  59 NW6       30.01S
HOUGHTON LAKE  MOCLDY    44  31  60 N6        29.98R
MANISTEE       CLEAR     45  28  53 N8        30.05R
OSCODA         CLOUDY    47  33  56 N10       29.94R
PELLSTON       CLOUDY    44  31  60 NW10      30.01S
ROGERS CITY    CLOUDY    44  33  66 NW15G25   29.98S
TRAVERSE CITY  PTCLDY    43  31  62 N6        30.03R
$$
MIZ007>008-015-270300-
EASTERN UPPER MICHIGAN

CITY           SKY/WX    TMP DP  RH WIND       PRES   REMARKS
KINROSS        CLOUDY    37  34  87 NW14      30.00S WCI  29
MACKINAC ISLAN CLOUDY    43  32  65 N8G16     30.00S
NEWBERRY       CLOUDY    38  32  78 NW8       30.04S WCI  32
S. S. MARIE    CLOUDY    37  31  78 NW6       30.01R WCI  32
MUNISING         N/A     39  30  70 NW9       30.10R WCI  33
$$
MIZ004>006-011>014-085-270300-
CENTRAL UPPER MICHIGAN

CITY           SKY/WX    TMP DP  RH WIND       PRES   REMARKS
MANISTIQUE     MOCLDY    39  31  73 NW7       30.06R WCI  34
ESCANABA       CLOUDY    45  28  53 NW7       30.08S
MENOMINEE      MOCLDY    46  27  46 NE9       30.08R
SAWYER-GWINN   CLOUDY    39  28  65 N3        30.09S
$$
MIZ001>003-009>011-084-270300-
WESTERN UPPER MICHIGAN

CITY           SKY/WX    TMP DP  RH WIND       PRES   REMARKS
IRON MOUNTAIN  CLEAR     45  26  47 N10       30.08R
HOUGHTON       CLEAR     35  28  75 NW13      30.13R WCI  26
COPPER HARBOR    N/A     39  29  67 N14G22    30.13R WCI  31
IRONWOOD       CLEAR     39  30  70 CALM      30.13R
$$

ABBREVIATIONS USED IN REMARKS
   TC - TEMPERATURE IN CELSIUS
  WCI - WIND CHILL INDEX
   HX - HEAT INDEX
  VSB - VISIBILITY




USA.gov is the U.S. government's official web portal to all federal, state and local government web resources and services.